(°C)
10°
10°
(°C)
-3°
-1°
ΒΑ
ΒΑ
ΒΑ
ΑΒΑ
ΑΒΑ
ΑΒΑ
Α
(χλμ / ω)
3-5
3-8
4-14
5-18
9-19
10-21
10-20
(χιλιοστά)
0
0
0
0
0
0
0
(%)
0
0
0
0
0
0
0

Sun elevation

/ 19.2°
sun-icon
UV 3
06:34
20:18
Αύξων μηνίσκος (φάση σελήνης) (59°)
09:20
00:53

METAR for Rothenburg (LSME)

Χρόνος Conditions Θερμοκρασία/
Σημείο δρόσου
Άνεμος Ορατότητα Καιρός Νέφη Πίεση Change Raw
0°C / -2°C variable 0kt - Few Clouds 1700ft 1021 - LSME 170620Z AUTO 00000KT 9999NDV FEW017 OVC022 M00/M02 Q1021 RMK
-1°C / -3°C variable 0kt - Overcast 2300ft 1021 - LSME 170550Z AUTO 00000KT 9999NDV OVC023 M01/M03 Q1021 RMK
-2°C / -4°C variable 0kt - Broken Clouds 2400ft 1021 - LSME 170520Z AUTO 00000KT 9999NDV BKN024 M02/M04 Q1021 RMK
-2°C / -4°C variable 0kt - Scattered Clouds 2500ft 1021 - LSME 170450Z AUTO 00000KT 9999NDV SCT025 M02/M04 Q1021 RMK
-2°C / -4°C variable 0kt - Clear 1020 - LSME 170420Z AUTO 00000KT 9999NDV NCD M02/M04 Q1020 RMK
-2°C / -4°C variable 0kt - Clear 1020 - LSME 170350Z AUTO 00000KT 9999NDV NCD M02/M04 Q1020 RMK
-2°C / -4°C variable 0kt - Clear 1020 - LSME 170320Z AUTO 00000KT 9999NDV NCD M02/M04 Q1020 RMK
-1°C / -3°C variable 0kt - Clear 1020 - LSME 170250Z AUTO 00000KT 9999NDV NCD M01/M03 Q1020 RMK
0°C / -3°C variable 0kt - Clear 1020 - LSME 170220Z AUTO 00000KT 9999NDV NCD M00/M03 Q1020 RMK
0°C / -3°C variable 0kt - Clear 1020 - LSME 170150Z AUTO 00000KT 9999NDV NCD M00/M03 Q1020 RMK
1°C / -3°C variable 0kt - Clear 1020 - LSME 170120Z AUTO 00000KT 9999NDV NCD 01/M03 Q1020 RMK
2°C / -3°C variable 0kt - Clear 1020 - LSME 170050Z AUTO 00000KT 9999NDV NCD 02/M03 Q1020 RMK
2°C / -3°C variable 0kt - Clear 1021 - LSME 170020Z AUTO 00000KT 9999NDV NCD 02/M03 Q1021 RMK
3°C / -3°C variable 0kt - Clear 1021 - LSME 162350Z AUTO 00000KT 9999NDV NCD 03/M03 Q1021 RMK
2°C / -3°C 360º variable 320º to 030º 3kt - Clear 1021 - LSME 162320Z AUTO 36003KT 320V030 9999NDV NCD 02/M03 Q1021 RMK
3°C / -3°C 20º 5kt - Clear 1021 - LSME 162250Z AUTO 02005KT 9999NDV NCD 03/M03 Q1021 RMK
3°C / -3°C 20º variable 350º to 050º 7kt - Clear 1021 - LSME 162220Z AUTO 02007KT 350V050 9999NDV NCD 03/M03 Q1021 RMK
4°C / -3°C 20º 7kt - Clear 1021 - LSME 162150Z AUTO 02007KT 9999NDV NCD 04/M03 Q1021 RMK
5°C / -3°C 30º 9kt - Few Clouds 5500ft 1021 - LSME 162120Z AUTO 03009KT 9999NDV FEW055 SCT072 05/M03 Q1021 RMK
5°C / -3°C 30º 8kt - Few Clouds 5600ft 1021 - LSME 162050Z AUTO 03008KT 9999NDV FEW056 BKN073 05/M03 Q1021 RMK
6°C / -3°C 30º variable 010º to 070º 9kt - Overcast 7200ft 1021 - LSME 162020Z AUTO 03009KT 010V070 9999NDV OVC072 06/M03 Q1021 RMK
6°C / -3°C 30º 8kt - Few Clouds 6000ft 1020 - LSME 161950Z AUTO 03008KT 9999NDV FEW060 OVC073 06/M03 Q1020 RMK
7°C / -3°C 20º variable 350º to 060º 8kt - Few Clouds 6100ft 1020 - LSME 161920Z AUTO 02008KT 350V060 9999NDV FEW061 OVC072 07/M03 Q1020 RMK
7°C / -3°C 40º variable 010º to 070º 6kt - Scattered Clouds 6100ft 1020 - LSME 161850Z AUTO 04006KT 010V070 9999NDV SCT061 OVC069 07/M03 Q1020 RMK

0°C / -2°C

[Περισσότερο]
Άνεμος variable 0kt
Ορατότητα
Καιρός -
Νέφη Few Clouds 1700ft
Πίεση 1021
Change -
Raw LSME 170620Z AUTO 00000KT 9999NDV FEW017 OVC022 M00/M02 Q1021 RMK

-1°C / -3°C

[Περισσότερο]
Άνεμος variable 0kt
Ορατότητα
Καιρός -
Νέφη Overcast 2300ft
Πίεση 1021
Change -
Raw LSME 170550Z AUTO 00000KT 9999NDV OVC023 M01/M03 Q1021 RMK

-2°C / -4°C

[Περισσότερο]
Άνεμος variable 0kt
Ορατότητα
Καιρός -
Νέφη Broken Clouds 2400ft
Πίεση 1021
Change -
Raw LSME 170520Z AUTO 00000KT 9999NDV BKN024 M02/M04 Q1021 RMK

-2°C / -4°C

[Περισσότερο]
Άνεμος variable 0kt
Ορατότητα
Καιρός -
Νέφη Scattered Clouds 2500ft
Πίεση 1021
Change -
Raw LSME 170450Z AUTO 00000KT 9999NDV SCT025 M02/M04 Q1021 RMK

-2°C / -4°C

[Περισσότερο]
Άνεμος variable 0kt
Ορατότητα
Καιρός -
Νέφη Clear
Πίεση 1020
Change -
Raw LSME 170420Z AUTO 00000KT 9999NDV NCD M02/M04 Q1020 RMK

-2°C / -4°C

[Περισσότερο]
Άνεμος variable 0kt
Ορατότητα
Καιρός -
Νέφη Clear
Πίεση 1020
Change -
Raw LSME 170350Z AUTO 00000KT 9999NDV NCD M02/M04 Q1020 RMK

-2°C / -4°C

[Περισσότερο]
Άνεμος variable 0kt
Ορατότητα
Καιρός -
Νέφη Clear
Πίεση 1020
Change -
Raw LSME 170320Z AUTO 00000KT 9999NDV NCD M02/M04 Q1020 RMK

-1°C / -3°C

[Περισσότερο]
Άνεμος variable 0kt
Ορατότητα
Καιρός -
Νέφη Clear
Πίεση 1020
Change -
Raw LSME 170250Z AUTO 00000KT 9999NDV NCD M01/M03 Q1020 RMK

0°C / -3°C

[Περισσότερο]
Άνεμος variable 0kt
Ορατότητα
Καιρός -
Νέφη Clear
Πίεση 1020
Change -
Raw LSME 170220Z AUTO 00000KT 9999NDV NCD M00/M03 Q1020 RMK

0°C / -3°C

[Περισσότερο]
Άνεμος variable 0kt
Ορατότητα
Καιρός -
Νέφη Clear
Πίεση 1020
Change -
Raw LSME 170150Z AUTO 00000KT 9999NDV NCD M00/M03 Q1020 RMK

1°C / -3°C

[Περισσότερο]
Άνεμος variable 0kt
Ορατότητα
Καιρός -
Νέφη Clear
Πίεση 1020
Change -
Raw LSME 170120Z AUTO 00000KT 9999NDV NCD 01/M03 Q1020 RMK

2°C / -3°C

[Περισσότερο]
Άνεμος variable 0kt
Ορατότητα
Καιρός -
Νέφη Clear
Πίεση 1020
Change -
Raw LSME 170050Z AUTO 00000KT 9999NDV NCD 02/M03 Q1020 RMK

2°C / -3°C

[Περισσότερο]
Άνεμος variable 0kt
Ορατότητα
Καιρός -
Νέφη Clear
Πίεση 1021
Change -
Raw LSME 170020Z AUTO 00000KT 9999NDV NCD 02/M03 Q1021 RMK

3°C / -3°C

[Περισσότερο]
Άνεμος variable 0kt
Ορατότητα
Καιρός -
Νέφη Clear
Πίεση 1021
Change -
Raw LSME 162350Z AUTO 00000KT 9999NDV NCD 03/M03 Q1021 RMK

2°C / -3°C

[Περισσότερο]
Άνεμος 360º variable 320º to 030º 3kt
Ορατότητα
Καιρός -
Νέφη Clear
Πίεση 1021
Change -
Raw LSME 162320Z AUTO 36003KT 320V030 9999NDV NCD 02/M03 Q1021 RMK

3°C / -3°C

[Περισσότερο]
Άνεμος 20º 5kt
Ορατότητα
Καιρός -
Νέφη Clear
Πίεση 1021
Change -
Raw LSME 162250Z AUTO 02005KT 9999NDV NCD 03/M03 Q1021 RMK

3°C / -3°C

[Περισσότερο]
Άνεμος 20º variable 350º to 050º 7kt
Ορατότητα
Καιρός -
Νέφη Clear
Πίεση 1021
Change -
Raw LSME 162220Z AUTO 02007KT 350V050 9999NDV NCD 03/M03 Q1021 RMK

4°C / -3°C

[Περισσότερο]
Άνεμος 20º 7kt
Ορατότητα
Καιρός -
Νέφη Clear
Πίεση 1021
Change -
Raw LSME 162150Z AUTO 02007KT 9999NDV NCD 04/M03 Q1021 RMK

5°C / -3°C

[Περισσότερο]
Άνεμος 30º 9kt
Ορατότητα
Καιρός -
Νέφη Few Clouds 5500ft
Πίεση 1021
Change -
Raw LSME 162120Z AUTO 03009KT 9999NDV FEW055 SCT072 05/M03 Q1021 RMK

5°C / -3°C

[Περισσότερο]
Άνεμος 30º 8kt
Ορατότητα
Καιρός -
Νέφη Few Clouds 5600ft
Πίεση 1021
Change -
Raw LSME 162050Z AUTO 03008KT 9999NDV FEW056 BKN073 05/M03 Q1021 RMK

6°C / -3°C

[Περισσότερο]
Άνεμος 30º variable 010º to 070º 9kt
Ορατότητα
Καιρός -
Νέφη Overcast 7200ft
Πίεση 1021
Change -
Raw LSME 162020Z AUTO 03009KT 010V070 9999NDV OVC072 06/M03 Q1021 RMK

6°C / -3°C

[Περισσότερο]
Άνεμος 30º 8kt
Ορατότητα
Καιρός -
Νέφη Few Clouds 6000ft
Πίεση 1020
Change -
Raw LSME 161950Z AUTO 03008KT 9999NDV FEW060 OVC073 06/M03 Q1020 RMK

7°C / -3°C

[Περισσότερο]
Άνεμος 20º variable 350º to 060º 8kt
Ορατότητα
Καιρός -
Νέφη Few Clouds 6100ft
Πίεση 1020
Change -
Raw LSME 161920Z AUTO 02008KT 350V060 9999NDV FEW061 OVC072 07/M03 Q1020 RMK

7°C / -3°C

[Περισσότερο]
Άνεμος 40º variable 010º to 070º 6kt
Ορατότητα
Καιρός -
Νέφη Scattered Clouds 6100ft
Πίεση 1020
Change -
Raw LSME 161850Z AUTO 04006KT 010V070 9999NDV SCT061 OVC069 07/M03 Q1020 RMK

Current satellite and rain images for Rothenburg, Ελβετία

  • Υετός:
  • <1 χιλιοστά
  • 1-2 χιλιοστά
  • 2-5 χιλιοστά
  • >5 χιλιοστά

Η ένδειξη τοποθεσίας τοποθετείται στο Rothenburg. [Περισσότερο]

The real-time satellite image combines visible light during daytime with infrared radiation during nighttime. At night, the image is not dark as infrared radiation can detect temperature differences. Unfortunately, low clouds and fog are difficult to distinguish from ground temperatures and thus can be almost invisible during the night. Meteosat satellite images for Europe are updated in real-time every 5 minutes. GOES-16/GOES-17 (North & South America) and Himawari (Asia) images update every 10 minutes.

Ο υετός υπολογίζεται από ραντάρ και δορυφόρους. Η εκτιμήση του υετού από δορυφόρους τη νύχτα είναι λιγότερο ακριβής από ό,τι την ημέρα. Με πορτοκαλί σταυροούς οι θέσεις όπου αστραπές εντοπίζονται (για Ευρώπη).

Πνευματική ιδιοκτησία 2021 EUMETSAT / meteoblue. Δεδομένα αστραπών παρεχόμενα από nowcast.

Ραντάρ και πρόγνωση υετού μικρής δειάρκειας για Rothenburg

Ο δείκτης θέσης τοποθετείται στο Rothenburg. Αυτή η κινούμενη εικόνα δείχνει την ραντάρ βροχόπτωσης για την τελευταία ώρα, καθώς και 1πρόγνωση h. Ψεκάδες (ψιλόβροχο) ή ελαφρά χιονόπτωση, μπορεί να είναι αόρατα στο ραντάρ. Η ένταση βροχόπτωσης κωδικοποιείται με χρώματα που κυμαίνονται από γαλάζιο έως σκούρο μοβ.

Τρέχουσα κατάσταση καιρού και προειδοποιήσεις

EUMETNET – MeteoAlarm

pictomap

Πηγή: MeteoSwiss

Μπορεί να υπάρχουν χρονικές καθυστερήσεις μεταξύ αυτής της ιστοσελίδας και του www.meteoalarm.eu Για πιο ενημερωμένες πληροφορίες σχετικά με τα επίπεδα συναγερμού, όπως δημοσιεύονται από τις συμμετέχουσες Εθνικές Μετεωρολογικές Υπηρεσίες, παρακαλούμε χρησιμοποιήστε το www.meteoalarm.eu.